• In Romania
  • List of Countries
  • For 7 days
  • Water Temperature
  • Satellite Maps
  • Weather Map
  • Weather Widgets
  • user-avatar
    Login

    Hourly Weather Lezhe

    Today, 19 January, Thursday

    Time Temperature Precipitation Wind Pressure Humidity
    00:00 0°C° 0.4 mm 5 mps 739 mmHg 88%
    01:00 0°C° 0 mm 5 mps 739 mmHg 89%
    02:00 0°C° 0.4 mm 5 mps 739 mmHg 89%
    03:00 0°C° 0.4 mm 5 mps 739 mmHg 90%
    04:00 0°C° 0.4 mm 5 mps 740 mmHg 90%
    05:00 -1°C° 0.1 mm 5 mps 740 mmHg 90%
    06:00 -1°C° 0.1 mm 5 mps 740 mmHg 90%
    07:00 -1°C° 0 mm 5 mps 741 mmHg 90%
    08:00 0°C° 0 mm 5 mps 741 mmHg 88%
    09:00 0°C° 0 mm 5 mps 742 mmHg 87%
    10:00 +1°C° 0 mm 5 mps 742 mmHg 86%
    11:00 +2°C° 0 mm 5 mps 742 mmHg 85%
    12:00 +3°C° 0 mm 5 mps 742 mmHg 85%
    13:00 +3°C° 0 mm 5 mps 742 mmHg 84%
    14:00 +3°C° 0 mm 4 mps 742 mmHg 85%
    15:00 +3°C° 0 mm 4 mps 743 mmHg 86%
    16:00 +1°C° 0 mm 4 mps 743 mmHg 87%
    17:00 0°C° 0 mm 4 mps 743 mmHg 87%
    18:00 -1°C° 0 mm 4 mps 744 mmHg 87%
    19:00 -2°C° 0 mm 4 mps 744 mmHg 88%
    20:00 -2°C° 0 mm 4 mps 745 mmHg 88%
    21:00 -2°C° 0 mm 4 mps 745 mmHg 87%
    22:00 -3°C° 0 mm 4 mps 746 mmHg 87%
    23:00 -3°C° 0 mm 4 mps 746 mmHg 87%

    Tomorrow, 20 January, Friday

    Time Temperature Precipitation Wind Pressure Humidity
    00:00 -3°C° 0 mm 4 mps 746 mmHg 87%
    01:00 -3°C° 0 mm 4 mps 747 mmHg 87%
    02:00 -3°C° 0 mm 4 mps 747 mmHg 87%
    03:00 -4°C° 0 mm 4 mps 747 mmHg 87%
    04:00 -4°C° 0 mm 3 mps 747 mmHg 87%
    05:00 -4°C° 0 mm 3 mps 747 mmHg 87%
    06:00 -4°C° 0 mm 3 mps 747 mmHg 87%
    07:00 -4°C° 0 mm 3 mps 747 mmHg 87%
    08:00 -1°C° 0 mm 3 mps 748 mmHg 85%
    09:00 +1°C° 0 mm 3 mps 748 mmHg 82%
    10:00 +3°C° 0 mm 3 mps 748 mmHg 80%
    11:00 +3°C° 0 mm 3 mps 748 mmHg 80%
    12:00 +5°C° 0 mm 2 mps 748 mmHg 80%
    13:00 +6°C° 0 mm 2 mps 747 mmHg 79%
    14:00 +6°C° 0 mm 2 mps 747 mmHg 82%
    15:00 +5°C° 0 mm 2 mps 747 mmHg 84%
    16:00 +4°C° 0 mm 2 mps 747 mmHg 87%
    17:00 +3°C° 0 mm 2 mps 747 mmHg 88%
    18:00 +1°C° 0 mm 2 mps 747 mmHg 89%
    19:00 -1°C° 0 mm 3 mps 747 mmHg 90%
    20:00 -1°C° 0 mm 3 mps 748 mmHg 89%
    21:00 -2°C° 0 mm 3 mps 748 mmHg 89%
    22:00 -2°C° 0 mm 3 mps 748 mmHg 88%
    23:00 -2°C° 0 mm 3 mps 748 mmHg 87%

    Day after tomorrow, 21 January, Saturday

    Time Temperature Precipitation Wind Pressure Humidity
    00:00 -2°C° 0 mm 3 mps 748 mmHg 87%
    01:00 -2°C° 0 mm 3 mps 748 mmHg 86%
    02:00 -4°C° 0 mm 3 mps 747 mmHg 86%
    03:00 -3°C° 0 mm 2 mps 747 mmHg 86%
    04:00 -3°C° 0 mm 2 mps 747 mmHg 85%
    05:00 -3°C° 0 mm 2 mps 747 mmHg 85%
    06:00 -3°C° 0 mm 2 mps 747 mmHg 84%
    07:00 -3°C° 0 mm 2 mps 747 mmHg 84%
    08:00 +1°C° 0 mm 2 mps 747 mmHg 82%
    09:00 +3°C° 0 mm 2 mps 747 mmHg 80%
    10:00 +5°C° 0 mm 2 mps 747 mmHg 78%
    11:00 +6°C° 0 mm 2 mps 747 mmHg 77%
    12:00 +7°C° 0 mm 2 mps 747 mmHg 76%
    13:00 +8°C° 0 mm 1 mps 746 mmHg 75%
    14:00 +7°C° 0 mm 1 mps 746 mmHg 79%
    15:00 +6°C° 0 mm 1 mps 746 mmHg 82%
    16:00 +6°C° 0 mm 1 mps 746 mmHg 86%
    17:00 +3°C° 0 mm 2 mps 746 mmHg 87%
    18:00 +2°C° 0 mm 2 mps 746 mmHg 87%
    19:00 +1°C° 0 mm 2 mps 746 mmHg 88%
    20:00 -1°C° 0 mm 3 mps 746 mmHg 87%
    21:00 -1°C° 0 mm 3 mps 747 mmHg 85%
    22:00 -1°C° 0 mm 3 mps 747 mmHg 84%
    23:00 -1°C° 0 mm 3 mps 747 mmHg 84%

    22 January, Sunday

    Time Temperature Precipitation Wind Pressure Humidity
    00:00 -1°C° 0 mm 3 mps 747 mmHg 83%
    01:00 -2°C° 0 mm 3 mps 747 mmHg 82%
    02:00 -2°C° 0 mm 3 mps 747 mmHg 82%
    03:00 -2°C° 0 mm 3 mps 747 mmHg 81%
    04:00 -2°C° 0 mm 3 mps 747 mmHg 81%
    05:00 -2°C° 0 mm 3 mps 747 mmHg 80%
    06:00 -2°C° 0 mm 3 mps 747 mmHg 79%
    07:00 -2°C° 0 mm 3 mps 747 mmHg 78%
    08:00 0°C° 0 mm 3 mps 747 mmHg 76%
    09:00 +3°C° 0 mm 2 mps 747 mmHg 75%
    10:00 +5°C° 0 mm 2 mps 747 mmHg 73%
    11:00 +6°C° 0 mm 2 mps 747 mmHg 73%
    12:00 +7°C° 0 mm 2 mps 747 mmHg 72%
    13:00 +8°C° 0 mm 2 mps 746 mmHg 72%
    14:00 +6°C° 0 mm 2 mps 746 mmHg 76%
    15:00 +5°C° 0 mm 2 mps 746 mmHg 79%
    16:00 +4°C° 0 mm 2 mps 746 mmHg 83%
    17:00 +3°C° 0 mm 2 mps 746 mmHg 83%
    18:00 +2°C° 0 mm 2 mps 746 mmHg 83%
    19:00 0°C° 0 mm 3 mps 746 mmHg 84%
    20:00 0°C° 0 mm 3 mps 746 mmHg 83%
    21:00 0°C° 0 mm 3 mps 746 mmHg 82%
    22:00 -1°C° 0 mm 3 mps 746 mmHg 80%
    23:00 -1°C° 0 mm 3 mps 746 mmHg 79%

    23 January, Monday

    Time Temperature Precipitation Wind Pressure Humidity
    00:00 -1°C° 0 mm 3 mps 746 mmHg 78%
    01:00 0°C° 0 mm 3 mps 745 mmHg 77%
    02:00 0°C° 0 mm 3 mps 745 mmHg 77%
    03:00 0°C° 0 mm 3 mps 745 mmHg 77%
    04:00 0°C° 0 mm 3 mps 744 mmHg 76%
    05:00 0°C° 0 mm 3 mps 744 mmHg 77%
    06:00 -1°C° 0 mm 3 mps 744 mmHg 77%
    07:00 -1°C° 0 mm 3 mps 744 mmHg 78%
    08:00 +1°C° 0 mm 3 mps 744 mmHg 77%
    09:00 +3°C° 0 mm 3 mps 744 mmHg 76%
    10:00 +4°C° 0 mm 3 mps 744 mmHg 75%
    11:00 +5°C° 0 mm 3 mps 743 mmHg 77%
    12:00 +6°C° 0 mm 2 mps 743 mmHg 78%
    13:00 +7°C° 0 mm 2 mps 742 mmHg 80%
    14:00 +6°C° 0.2 mm 2 mps 742 mmHg 82%
    15:00 +6°C° 0.2 mm 2 mps 741 mmHg 84%
    16:00 +5°C° 0.2 mm 2 mps 741 mmHg 86%
    17:00 +5°C° 0.4 mm 2 mps 741 mmHg 86%
    18:00 +5°C° 0.4 mm 2 mps 741 mmHg 87%
    19:00 +5°C° 0.4 mm 2 mps 740 mmHg 88%
    20:00 +4°C° 0.6 mm 3 mps 740 mmHg 89%
    21:00 +4°C° 0.6 mm 3 mps 740 mmHg 90%
    22:00 +4°C° 0.6 mm 3 mps 740 mmHg 91%
    23:00 +4°C° 0.8 mm 3 mps 739 mmHg 91%

    24 January, Tuesday

    Time Temperature Precipitation Wind Pressure Humidity
    00:00 +5°C° 0.8 mm 2 mps 739 mmHg 92%
    01:00 +5°C° 0.8 mm 2 mps 739 mmHg 93%
    02:00 +5°C° 0.7 mm 2 mps 738 mmHg 93%
    03:00 +5°C° 0.7 mm 2 mps 738 mmHg 93%
    04:00 +5°C° 0.7 mm 2 mps 737 mmHg 94%
    05:00 +5°C° 0.8 mm 2 mps 737 mmHg 94%
    06:00 +5°C° 0.8 mm 2 mps 737 mmHg 93%
    07:00 +5°C° 0.8 mm 2 mps 737 mmHg 93%
    08:00 +6°C° 0.5 mm 2 mps 737 mmHg 92%
    09:00 +6°C° 0.5 mm 2 mps 737 mmHg 91%
    10:00 +7°C° 0.5 mm 2 mps 737 mmHg 91%
    11:00 +7°C° 0.7 mm 2 mps 736 mmHg 91%
    12:00 +8°C° 0.7 mm 1 mps 736 mmHg 91%
    13:00 +8°C° 0.7 mm 1 mps 736 mmHg 91%
    14:00 +7°C° 0.5 mm 1 mps 736 mmHg 92%
    15:00 +7°C° 0.5 mm 1 mps 735 mmHg 92%
    16:00 +6°C° 0.5 mm 2 mps 735 mmHg 93%
    17:00 +6°C° 0.3 mm 2 mps 736 mmHg 93%
    18:00 +5°C° 0.3 mm 2 mps 736 mmHg 93%
    19:00 +5°C° 0.3 mm 2 mps 736 mmHg 92%
    20:00 +5°C° 0.2 mm 2 mps 736 mmHg 92%
    21:00 +4°C° 0.2 mm 2 mps 736 mmHg 92%
    22:00 +4°C° 0.2 mm 2 mps 736 mmHg 92%
    23:00 +3°C° 0.2 mm 3 mps 737 mmHg 92%
    Show more